Regional Weather Roundup
Issued by NWS

Home | Current Version | Previous Version | Text Only | Print | Product List | Glossary On
Versions: 1 2 3 4 5 6 7 8 9 10 11 12 13 14 15 16 17 18 19 20 21 22 23 24 25 26 27
000
ASUS42 KTBW 290517
RWRFL
FLORIDA REGIONAL WEATHER ROUNDUP
NATIONAL WEATHER SERVICE TAMPA BAY RUSKIN FL
100 AM EDT SUN MAY 29 2016

NOTE: "FAIR" INDICATES FEW OR NO CLOUDS BELOW 12,000 FEET WITH NO
SIGNIFICANT WEATHER AND/OR OBSTRUCTIONS TO VISIBILITY.

FLZ001>010-012>015-112-114-115-290600-
PANHANDLE FLORIDA

CITY           SKY/WX    TMP DP  RH WIND       PRES   REMARKS
PENSACOLA      PTCLDY    74  67  78 CALM      30.06F
MILTON NAS     CLEAR     69  67  93 CALM      30.07
CRESTVIEW      CLOUDY    68  65  90 CALM      30.08S
DUKE FIELD     FAIR      68  63  84 CALM      30.06S
VALPARAISO     PTCLDY    73  64  74 CALM      30.06F
MARY ESTHER    PTCLDY    72  64  78 CALM      30.05
PANAMA CITY    FAIR      70  68  93 NW5       30.06S
TYNDALL AFB    CLEAR     74  72  93 NW3       30.06S
APALACHICOLA   CLEAR     73  73 100 NW5       30.05F

STATION/POSITION SKY/WX   TEMP    WIND        PRES    WAVE   SWELL
                          AIR SEA DIR/SP/G            HT/PER HT/PER
                          (F)     (DEG/KT/KT) (MB)    (FT/S) (FT/S)
30.1N   87.6W              78 80  170/  4/  4 1017.5F   2/ 5   2/ 5
29.2N   88.2W              79 80  100/  6/  8 1018.0F
28.8N   86.0W              78 80  310/  4/  6 1018.1F   2/ 5   2/ 5
PANAMA CITY BEAC           78 80  270/  6/  6 1018.4F
TOWER C                    77     290/  8/  9 1018.0F
28.5N   84.5W              78 78  320/  8/ 10 1017.1S   1/ 4

$$
FLZ011-016>038-118-127-128-134-139-239-290600-
NORTH FLORIDA

CITY           SKY/WX    TMP DP  RH WIND       PRES   REMARKS
MARIANNA       CLEAR     73  70  90 CALM      30.06S
TALLAHASSEE    CLEAR     77  68  73 NW5       30.05F
PERRY          CLEAR     72  69  91 CALM      30.06S
LIVE OAK         N/A     75  72  88 E3        30.08S
CROSS CITY       N/A     75  69  81 CALM      30.05S
LAKE CITY      FAIR      70  70 100 CALM      30.07S
GAINESVILLE    PTCLDY    70  66  87 NE3       30.06F
WILLISTON      FAIR      73  70  88 CALM      30.06F
PALATKA        FAIR      72  72 100 CALM      30.06S
MAYPORT NAS    CLEAR     71  67  87 VRB5      30.05R
JACKSONVILLE   PTCLDY    68  67  96 N5        30.04F
JAX NAS        CLEAR     77  67  71 N14       30.06S
JAX CECIL        N/A     68  66  94 CALM      30.06S
FERNANDINA BEA FAIR      73  68  83 NW7       30.03F
ST AUGUSTINE   CLEAR     72  67  84 MISG      30.06S
PALM COAST     FAIR      71  70  98 CALM      30.05S

STATION/POSITION SKY/WX   TEMP    WIND        PRES    WAVE   SWELL
                          AIR SEA DIR/SP/G            HT/PER HT/PER
                          (F)     (DEG/KT/KT) (MB)    (FT/S) (FT/S)
SHELL POINT                76     330/  6/  8 1016.5
KEATON BEACH               76      10/  2/  2 1017.2F
CEDAR KEY                  77     350/  3/  3 1017.9F
FERNANDINA                 73 81  320/  5/ 10 1017.5F
30.7N   81.3W                 78                N/A     6/ 8
MAYPORT                    73 80  330/  7/  9 1017.6S
31.4N   80.9W              73 76  330/ 19/ 21 1015.2F   6/ 6
ST AUGUSTINE               73 79  300/  4/  5 1018.4R

$$
FLZ040-043>046-052-053-057-058-063-144-290600-
INTERIOR CENTRAL FLORIDA

CITY           SKY/WX    TMP DP  RH WIND       PRES   REMARKS
OCALA          CLEAR     73  64  73 CALM      30.07S
THE VILLAGES     N/A     73  70  88 CALM      29.97S
LEESBURG       CLOUDY    75  68  78 E7        30.07F
SANFORD        CLEAR     75  68  78 CALM      30.07R
ORLANDO EXEC   CLEAR     76  69  79 S3        30.07S
ORLANDO INTL   PTCLDY    73  69  87 CALM      30.07S
WINTER HAVEN   CLOUDY    76  69  79 E3        30.09R
LAKELAND       MOCLDY    73  70  88 SE3       30.07R
BARTOW         CLOUDY    72  72 100 CALM      30.07S

$$
FLZ041-047-054-059-064-141-147-290600-
EAST CENTRAL FLORIDA

CITY           SKY/WX    TMP DP  RH WIND       PRES   REMARKS
DAYTONA BEACH  PTCLDY    73  70  90 CALM      30.06R
DELAND           N/A     72  68  88 CALM      30.08R
JFK SPACE CTR  CLEAR     71  68  92 N3        30.04F
CAPE CANAVERAL CLEAR     73  69  88 CALM      30.04S
PATRICK AFB    CLEAR     77  71  82 SE2       30.05S
MELBOURNE      CLOUDY    76  71  85 SW3       30.06S
VERO BEACH     CLEAR     75  71  87 CALM      30.06S
FT PIERCE      PTCLDY    73  72  96 CALM      30.05S
STUART         CLEAR     79  72  78 W3        30.06S

STATION/POSITION SKY/WX   TEMP    WIND        PRES    WAVE   SWELL
                          AIR SEA DIR/SP/G            HT/PER HT/PER
                          (F)     (DEG/KT/KT) (MB)    (FT/S) (FT/S)
28.5N   80.2W              77 80  310/  6/  8 1017.8R
28.9N   78.5W              79 79  190/  8/  8 1016.9F
TRIDENT PIER               74 81   30/  3/  4 1017.8S
28.4N   80.5W                 81                N/A     2/ 7
27.5N   80.2W                 80                N/A     3/ 8

$$
FLZ050-056-061-142-242-148-248-149-249-151-251-155-255-
160-260-290600-
WEST CENTRAL FLORIDA

CITY           SKY/WX    TMP DP  RH WIND       PRES   REMARKS
CRYSTAL RIVER  FAIR      73  70  88 CALM      30.06S
INVERNESS      FAIR      72  70  94 CALM      30.07S
BROOKSVILLE    CLEAR     75  71  87 E3        30.06S
ZEPHYRHILLS    FAIR      71  64  78 CALM      30.08S
CLEARWATER AIR MOCLDY    77  72  83 CALM      30.05S
ST PETE CLEARW PTCLDY    78  71  79 N7        30.05S
TAMPA INTL     PTCLDY    78  71  79 N5        30.06S
TAMPA EXEC     PTCLDY    73  70  88 CALM      30.06S
PLANT CITY     MOCLDY    75  72  88 CALM      30.08S
MACDILL AFB    CLEAR     78  73  85 NW3       30.05S
PETER O KNIGHT CLEAR     81  73  78 N3        30.06S
ST PETERSBURG  MOCLDY    79  71  76 N6        30.04R
SARASOTA       CLEAR     78  70  76 NW5       30.04S
VENICE         NOT AVBL

STATION/POSITION SKY/WX   TEMP    WIND        PRES    WAVE   SWELL
                          AIR SEA DIR/SP/G            HT/PER HT/PER
                          (F)     (DEG/KT/KT) (MB)    (FT/S) (FT/S)
27.3N   84.2W                 81                N/A     1/ 4
CLEARWATER BEACH           79 83  310/  8/ 11 1017.6F
MIDDLE TAMPA BAY NOT AVBL
VENICE                     80 81  310/  7/  8 1017.3F

$$
FLZ066-069-070-075>078-162-262-165-265-290600-
SOUTHWEST FLORIDA AND KEYS

CITY           SKY/WX    TMP DP  RH WIND       PRES   REMARKS
PUNTA GORDA    PTCLDY    74  72  93 E6        30.07S
FT MYERS       CLEAR     77  72  84 NE6       30.05S
SOUTHWEST INTL CLEAR     74  71  91 E6        30.06R
NAPLES         CLEAR     77  73  87 CALM      30.04F
MARCO ISLAND   CLEAR     75  70  83 NE3       30.05S
MARATHON       PTCLDY    80  70  71 SE3       30.04F
KEY WEST NAS   CLEAR     79  71  76 E6        30.05S
KEY WEST INTL  CLEAR     80  73  79 E5        30.05S

STATION/POSITION SKY/WX   TEMP    WIND        PRES    WAVE   SWELL
                          AIR SEA DIR/SP/G            HT/PER HT/PER
                          (F)     (DEG/KT/KT) (MB)    (FT/S) (FT/S)
NAPLES                        84              1017.5R
26.0N   85.6W              80 81   70/  6/  6 1017.7F   1/ 4   2/ 4
DRY TORTUGAS               81      70/  6/  6 1017.6S
SAND KEY                   81     110/  9/ 10 1017.9S
LONG KEY                   82 85  110/  3/  4 1017.6F

$$
FLZ067-068-071>074-168-172>174-290600-
SOUTHEAST FLORIDA

CITY           SKY/WX    TMP DP  RH WIND       PRES   REMARKS
W PALM BEACH   PTCLDY    78  70  76 S3        30.05F
FT LAUDER-EXEC CLEAR     74  70  87 CALM      30.04F
FT LAUDERDALE  PTCLDY    76  71  85 CALM      30.04F
POMPANO BEACH  CLEAR     76  71  85 CALM      30.04F
PEMBROKE PINES CLEAR     76  70  82 CALM      30.06S
OPA LOCKA      CLEAR     75  70  84 CALM      30.05F
MIAMI          PTCLDY    77  70  79 CALM      30.05F
WEST KENDALL   CLEAR     73  69  87 CALM      30.04F
HOMESTEAD      CLEAR     76  72  87 NW1       30.04F

STATION/POSITION SKY/WX   TEMP    WIND        PRES    WAVE   SWELL
                          AIR SEA DIR/SP/G            HT/PER HT/PER
                          (F)     (DEG/KT/KT) (MB)    (FT/S) (FT/S)
PORT EVERGLADES            80     110/  2/  5 1017.4F
VIRGINIA KEY               80 82  110/  3/  3 1017.9S
LAKE WORTH                 80 82  140/  3/  4 1017.6R
FOWEY ROCKS                80 82  100/  5/  6 1017.8F
SETTLEMENT POINT           78     130/  4/  5 1018.3F

$$





USA.gov is the U.S. government's official web portal to all federal, state and local government web resources and services.